Погода в Рюссельсхайм

Германия     49°59′19″N   8°25′38″E
темп.,
°C
ветер,
м/с
пор.,
м/с
влажн.,
%
обл.,
%
осадки,
мм/ч
давл.,
гПа
погр.,
м
19 июня, сб
сб1923:00+21ююз119190 8.9 101429
02:00+20ююз1395100 9.9 101594
05:00+20ююз119611 0.6 101412
08:00+22юз128866 0.6 1015205
11:00+27юз125750 0.0 10151013
14:00+30ююз23425 0.0 10131708
17:00+31юз23378 0.0 10111680
20:00+29всв115152 0.0 100921
20 июня, вс
вс2023:00+24всв266782 0.1 1010147
02:00+21в31290100 3.1 1008400
05:00+19ю41295100 8.5 1010642
08:00+20юз3108972 9.3 1011693
11:00+23зюз466441 0.0 1011900
14:00+26юз354621 0.0 10101423
17:00+27юв114325 0.0 10071282
20:00+24св2561100 0.1 1005149
21 июня, пн
пн2123:00+18с2498100 10.8 1007163
02:00+19ю1197100 14.4 1006127
05:00+18ююз259946 0.1 1006218
08:00+19юз378873 0.1 1007581
11:00+23юз486449 0.0 10081251
14:00+22юз477620 0.6 10081045
17:00+25зюз57538 0.4 10081664
20:00+23зюз35665 0.4 1008620
22 июня, вт
вт2223:00+19ссз11793 0.0 100918
02:00+18з1180100 0.1 101154
05:00+17з118699 0.0 101131
08:00+19ссз2276100 0.0 1012315
11:00+23всв116048 0.0 10121109
14:00+26ю1149100 0.2 10121692
17:00+20ссз369095 2.1 1013245
20:00+20ссз1387100 4.7 1014101
23 июня, ср
ср2323:00+17с239576 0.1 101582
02:00+16с2595100 0.1 1016240
05:00+15с249485 0.0 1017186
08:00+16с238899 0.0 1018293
11:00+20св227199 0.0 1017907
14:00+22св336798 0.0 10171076
17:00+22всв3468100 0.4 1016774
20:00+25св465675 0.1 1012932